Вернуться в каталог

COSMOS 2251 DEB

АктивенLEO
NORAD 36533·DEBRIS·🇷🇺 Russia

Запущен Jun 16, 1993 с Plesetsk Cosmodrome

Loading…

Ближайшие Пролёты (ближайшие 24 часа)

TLE

СвежийSource: Space-Track

Эпоха: Sep 14, 2026, 03:43 UTC

1 36533U 93036BCT 26257.15532294  .00000647  00000-0  17007-3 0  9999
2 36533  74.0118 316.6514 0047232  36.5926 323.8445 14.50524186884777

Отслеживайте COSMOS 2251 DEB в реальном времени с AllMySat

Download on the App Store